INSAT-4CR

Last updated on Jan. 15, 2021, 6:30 a.m. UTC

1 32050U 07037A   21014.68388973  .00000033  00000-0  00000-0 0  9993
2 32050   1.8466  91.3343 0001837 308.5115 169.7166  0.99219219 31532
UTC
Height (km)
Latitude
Longitude
Inclination
Orbital Period
UTC large
Height (km)
Speed (km/s)
/
Latitude / Longitude
Inclination (degrees)
Orbital Period (minutes)
Azimuth
Elevation
Range (km)
Doppler Factor
iOS Compass Heading
iOS Angle

Next 30 passes for location: Hong Kong

Rise time Rise Azimuth (degrees) Set time Set Azimuth (degrees) Duration Max altitude (degrees)

No matching passes for this satellites